TimeMST,TemperatureF,Dew PointF,Humidity,Sea Level PressureIn,VisibilityMPH,Wind Direction,Wind SpeedMPH,Gust SpeedMPH,PrecipitationIn,Events,Conditions,WindDirDegrees,DateUTC
12:56 AM,37.4,23.0,56,29.87,10.0,SW,25.3,29.9,N/A,,Clear,230,2013-01-06 07:56:00
1:56 AM,37.9,21.9,53,29.91,10.0,WSW,21.9,29.9,N/A,,Clear,240,2013-01-06 08:56:00
2:56 AM,37.0,21.9,54,29.92,10.0,WSW,24.2,33.4,N/A,,Clear,240,2013-01-06 09:56:00
3:56 AM,35.1,21.9,59,29.92,10.0,WSW,27.6,36.8,N/A,,Clear,250,2013-01-06 10:56:00
4:56 AM,34.0,21.9,61,29.93,10.0,WSW,13.8,24.2,N/A,,Partly Cloudy,250,2013-01-06 11:56:00
5:56 AM,34.0,21.9,61,29.88,10.0,WSW,27.6,32.2,N/A,,Clear,240,2013-01-06 12:56:00
6:56 AM,34.0,21.9,61,29.89,10.0,WSW,34.5,41.4,N/A,,Clear,250,2013-01-06 13:56:00
7:56 AM,33.1,23.0,66,29.88,10.0,West,28.8,36.8,N/A,,Clear,260,2013-01-06 14:56:00
8:56 AM,32.0,21.9,66,29.87,10.0,WSW,32.2,36.8,N/A,,Clear,250,2013-01-06 15:56:00
9:56 AM,35.1,23.0,61,29.87,10.0,West,28.8,35.7,N/A,,Clear,260,2013-01-06 16:56:00
10:56 AM,37.0,23.0,57,29.87,10.0,West,26.5,32.2,N/A,,Clear,260,2013-01-06 17:56:00
11:56 AM,37.0,21.9,54,29.85,10.0,West,25.3,31.1,N/A,,Clear,260,2013-01-06 18:56:00
12:56 PM,37.9,19.0,47,29.83,10.0,West,34.5,39.1,N/A,,Clear,270,2013-01-06 19:56:00
1:56 PM,37.0,18.0,46,29.83,10.0,West,31.1,38.0,N/A,,Clear,270,2013-01-06 20:56:00
2:56 PM,36.0,19.9,52,29.83,10.0,WSW,28.8,34.5,N/A,,Clear,250,2013-01-06 21:56:00
3:56 PM,33.1,21.0,61,29.85,10.0,WSW,29.9,38.0,N/A,,Clear,250,2013-01-06 22:56:00
4:56 PM,30.0,19.9,66,29.88,10.0,West,21.9,-,N/A,,Clear,260,2013-01-06 23:56:00
5:56 PM,27.0,19.0,72,29.90,10.0,West,18.4,-,N/A,,Clear,260,2013-01-07 00:56:00
6:56 PM,26.1,18.0,71,29.92,10.0,West,13.8,-,N/A,,Clear,280,2013-01-07 01:56:00
7:56 PM,26.1,18.0,71,29.92,10.0,West,15.0,-,N/A,,Clear,270,2013-01-07 02:56:00
8:56 PM,24.1,17.1,75,29.91,10.0,NW,5.8,-,N/A,,Mostly Cloudy,320,2013-01-07 03:56:00
9:56 PM,30.9,18.0,59,29.87,10.0,WSW,31.1,40.3,N/A,,Overcast,250,2013-01-07 04:56:00
10:56 PM,30.0,19.9,66,29.88,10.0,WSW,24.2,32.2,N/A,,Partly Cloudy,250,2013-01-07 05:56:00
11:56 PM,30.0,21.0,69,29.86,10.0,WSW,24.2,35.7,N/A,,Partly Cloudy,250,2013-01-07 06:56:00